W6QLE Weather Reports


time (UTC)temp
F
wind
direction
speed
knots
gust
knots
rain 1hr
in
rain 24hr
in
rain mn
in
humidity
%
barometer
mb
20260504201507 82 354 1.7 7.8 0.00 0.00 0.00 27 1008.5
20260504200012 82 264 2.6 9.6 0.00 0.00 0.00 25 1008.5
20260504194503 81 269 2.6 6.1 0.00 0.00 0.00 27 1008.5
20260504193004 81 289 1.7 5.2 0.00 0.00 0.00 28 1008.5
20260504191508 80 145 5.2 7.0 0.00 0.00 0.00 29 1008.7
20260504190013 80 261 0.9 5.2 0.00 0.00 0.00 31 1009.0
20260504184520 80 257 1.7 5.2 0.00 0.00 0.00 31 1009.1
20260504183004 79 261 0.0 2.6 0.00 0.00 0.00 34 1009.1
20260504181504 78 261 0.9 2.6 0.00 0.00 0.00 32 1009.2
20260504180007 76 261 0.9 1.7 0.00 0.00 0.00 35 1009.3
20260504174512 76 261 0.9 2.6 0.00 0.00 0.00 34 1009.4
20260504173021 74 261 0.0 2.6 0.00 0.00 0.00 36 1009.4
20260504171507 73 261 0.9 2.6 0.00 0.00 0.00 38 1009.4
20260504081524 50 141 0.0 0.0 0.00 0.00 0.00 82 1008.6
20260504050024 57 141 0.0 1.7 0.00 0.00 0.00 71 1008.6
20260504044526 58 141 0.0 1.7 0.00 0.00 0.00 69 1008.7
20260504043027 59 141 0.0 0.0 0.00 0.00 0.00 67 1008.7
20260504041515 61 141 0.0 0.0 0.00 0.00 0.00 65 1008.6
20260504040018 62 141 0.0 0.0 0.00 0.00 0.00 62 1008.5
20260504034532 64 141 0.0 0.0 0.00 0.00 0.00 57 1008.3
20260504033039 66 141 0.0 1.7 0.00 0.00 0.00 53 1008.2
20260504031531 67 139 0.0 0.0 0.00 0.00 0.00 49 1008.2
20260504030017 69 139 0.0 1.7 0.00 0.00 0.00 46 1008.2
20260504024540 71 139 0.0 1.7 0.00 0.00 0.00 43 1008.1
20260504023028 73 139 0.0 0.0 0.00 0.00 0.00 40 1008.1
20260504021527 75 139 0.0 0.9 0.00 0.00 0.00 36 1008.2
20260504020026 77 139 0.0 1.7 0.00 0.00 0.00 32 1008.4
20260504014522 79 138 0.0 1.7 0.00 0.00 0.00 27 1008.5
20260504013023 80 162 0.0 1.7 0.00 0.00 0.00 26 1008.6
20260504011528 81 184 0.0 2.6 0.00 0.00 0.00 24 1008.7
20260504010028 83 134 3.5 7.0 0.00 0.00 0.00 24 1008.8
20260504004534 84 174 1.7 4.3 0.00 0.00 0.00 22 1009.0
20260504003024 84 103 1.7 3.5 0.00 0.00 0.00 23 1009.1
20260504001506 84 165 0.9 4.3 0.00 0.00 0.00 23 1009.2
20260504000010 84 198 1.7 8.7 0.00 0.00 0.00 22 1009.4
20260503234517 83 129 1.7 8.7 0.00 0.00 0.00 22 1009.5
20260503233024 84 101 1.7 6.1 0.00 0.00 0.00 22 1009.7
20260503231508 83 256 0.9 7.0 0.00 0.00 0.00 22 1009.7
20260503230009 83 113 2.6 7.0 0.00 0.00 0.00 22 1009.8
20260503224513 83 17 1.7 2.6 0.00 0.00 0.00 22 1010.0
20260503223022 85 156 5.2 7.8 0.00 0.00 0.00 20 1010.4
20260503221525 86 191 2.6 3.5 0.00 0.00 0.00 21 1010.6
20260503220006 86 86 1.7 5.2 0.00 0.00 0.00 20 1010.9
20260503214516 85 283 2.6 3.5 0.00 0.00 0.00 21 1011.2
20260503213019 84 283 1.7 4.3 0.00 0.00 0.00 21 1011.4
20260503211535 84 283 0.9 3.5 0.00 0.00 0.00 21 1011.6
20260503210031 84 283 1.7 4.3 0.00 0.00 0.00 22 1011.9
20260503204509 85 123 2.6 6.1 0.00 0.00 0.00 21 1012.2
20260503203020 83 193 0.9 7.8 0.00 0.00 0.00 20 1012.3